NEA669 KBOS-KLAX

Flight info

Callsign NEA669
Flight time N/A
Altitude 32000
Route HYLND7 HYLND HANAA Q816 HOCKE GRB ODI FSD J114 DVV J60 HVE PROMT Q88 HAKMN ANJLL4
Aircraft A321/M-SDE3FGHIRWY/LB1

Departure

Time 2026-05-05 22:38
Airport Boston Logan International Airport (KBOS)

Arrival

Time N/A
Airport Los Angeles International Airport (KLAX)
Time Latitude Longitude Altitude Speed Heading
2026-05-05 22:02 42.36221 -71.02094 26 ft 0 kts 176°
2026-05-05 22:14 42.36222 -71.02094 30 ft 1 kts 176°
2026-05-05 22:14 42.36238 -71.02095 27 ft 3 kts 171°
2026-05-05 22:14 42.36254 -71.02102 30 ft 3 kts 130°
2026-05-05 22:14 42.36261 -71.02122 29 ft 3 kts 111°
2026-05-05 22:15 42.36268 -71.02138 30 ft 3 kts 175°
2026-05-05 22:15 42.36279 -71.02134 29 ft 3 kts 242°
2026-05-05 22:15 42.36283 -71.02121 30 ft 2 kts 253°
2026-05-05 22:15 42.36288 -71.02101 28 ft 1 kts 253°
2026-05-05 22:16 42.36288 -71.02099 29 ft 0 kts 253°
2026-05-05 22:17 42.36283 -71.02123 30 ft 5 kts 254°
2026-05-05 22:17 42.36275 -71.02159 29 ft 6 kts 253°
2026-05-05 22:17 42.36262 -71.02214 30 ft 7 kts 248°
2026-05-05 22:17 42.36229 -71.02260 31 ft 7 kts 228°
2026-05-05 22:18 42.36210 -71.02322 25 ft 7 kts 244°
2026-05-05 22:18 42.36189 -71.02345 28 ft 2 kts 192°
2026-05-05 22:18 42.36188 -71.02345 28 ft 0 kts 192°
2026-05-05 22:20 42.36138 -71.02344 26 ft 11 kts 168°
2026-05-05 22:20 42.36069 -71.02304 25 ft 11 kts 145°
2026-05-05 22:20 42.36022 -71.02225 28 ft 11 kts 120°
2026-05-05 22:21 42.35980 -71.02135 28 ft 12 kts 122°
2026-05-05 22:21 42.35927 -71.02018 27 ft 17 kts 121°
2026-05-05 22:21 42.35862 -71.01864 27 ft 20 kts 111°
2026-05-05 22:21 42.35835 -71.01714 29 ft 12 kts 101°
2026-05-05 22:22 42.35823 -71.01604 25 ft 12 kts 79°
2026-05-05 22:22 42.35889 -71.01551 25 ft 12 kts 21°
2026-05-05 22:22 42.36006 -71.01493 27 ft 25 kts 19°
2026-05-05 22:22 42.36181 -71.01409 30 ft 27 kts 19°
2026-05-05 22:23 42.36355 -71.01325 28 ft 26 kts 19°
2026-05-05 22:23 42.36528 -71.01241 27 ft 26 kts 19°
2026-05-05 22:23 42.36698 -71.01160 28 ft 25 kts 19°
2026-05-05 22:23 42.36831 -71.01200 26 ft 14 kts 318°
2026-05-05 22:24 42.36912 -71.01195 26 ft 13 kts 41°
2026-05-05 22:24 42.36984 -71.01115 28 ft 14 kts 34°
2026-05-05 22:24 42.37071 -71.01057 28 ft 14 kts 25°
2026-05-05 22:24 42.37164 -71.00995 26 ft 15 kts 25°
2026-05-05 22:25 42.37261 -71.00933 26 ft 16 kts 25°
2026-05-05 22:25 42.37366 -71.00877 29 ft 16 kts 19°
2026-05-05 22:25 42.37475 -71.00824 27 ft 17 kts 20°
2026-05-05 22:25 42.37587 -71.00769 28 ft 17 kts 20°
2026-05-05 22:26 42.37661 -71.00734 27 ft 7 kts 19°
2026-05-05 22:26 42.37681 -71.00724 27 ft 3 kts 19°
2026-05-05 22:26 42.37700 -71.00715 27 ft 1 kts 19°
2026-05-05 22:26 42.37712 -71.00709 27 ft 3 kts 19°
2026-05-05 22:27 42.37734 -71.00698 28 ft 4 kts 19°
2026-05-05 22:27 42.37767 -71.00682 27 ft 6 kts 20°
2026-05-05 22:27 42.37770 -71.00681 27 ft 0 kts 20°
2026-05-05 22:27 42.37778 -71.00677 27 ft 3 kts 20°
2026-05-05 22:28 42.37783 -71.00674 27 ft 0 kts 20°
2026-05-05 22:28 42.37785 -71.00673 27 ft 1 kts 20°
2026-05-05 22:28 42.37794 -71.00669 27 ft 0 kts 20°
2026-05-05 22:29 42.37797 -71.00667 27 ft 1 kts 20°
2026-05-05 22:29 42.37812 -71.00658 28 ft 3 kts 26°
2026-05-05 22:29 42.37831 -71.00634 28 ft 0 kts 56°
2026-05-05 22:33 42.37831 -71.00633 28 ft 0 kts 56°
2026-05-05 22:33 42.37836 -71.00622 25 ft 4 kts 62°
2026-05-05 22:33 42.37836 -71.00591 25 ft 1 kts 99°
2026-05-05 22:33 42.37834 -71.00582 25 ft 0 kts 105°
2026-05-05 22:36 42.37828 -71.00559 27 ft 7 kts 108°
2026-05-05 22:36 42.37810 -71.00491 27 ft 4 kts 114°
2026-05-05 22:36 42.37788 -71.00476 28 ft 3 kts 180°
2026-05-05 22:36 42.37772 -71.00484 27 ft 0 kts 200°
2026-05-05 22:37 42.37767 -71.00486 27 ft 7 kts 200°
2026-05-05 22:37 42.37488 -71.00620 27 ft 76 kts 199°
2026-05-05 22:37 42.36797 -71.00952 33 ft 132 kts 199°
2026-05-05 22:38 42.35898 -71.01379 575 ft 138 kts 199°
2026-05-05 22:38 42.34990 -71.01811 1259 ft 140 kts 193°
2026-05-05 22:38 42.34006 -71.01582 1647 ft 161 kts 156°
2026-05-05 22:38 42.33151 -71.00366 1806 ft 193 kts 139°
2026-05-05 22:39 42.32270 -70.98867 1970 ft 213 kts 138°
2026-05-05 22:39 42.31524 -70.97036 2398 ft 235 kts 116°
2026-05-05 22:39 42.31308 -70.94764 2799 ft 258 kts 92°
2026-05-05 22:39 42.31636 -70.92244 2938 ft 285 kts 83°
2026-05-05 22:40 42.32061 -70.89497 3237 ft 302 kts 82°
2026-05-05 22:40 42.32488 -70.86730 3806 ft 306 kts 83°
2026-05-05 22:40 42.32936 -70.83819 4485 ft 310 kts 83°
2026-05-05 22:40 42.33370 -70.81028 5084 ft 315 kts 79°
2026-05-05 22:41 42.34187 -70.78251 5650 ft 323 kts 59°
2026-05-05 22:41 42.35613 -70.75851 6232 ft 325 kts 38°
2026-05-05 22:41 42.37432 -70.74160 6834 ft 319 kts 19°
2026-05-05 22:41 42.39495 -70.73154 7517 ft 313 kts 10°
2026-05-05 22:42 42.41572 -70.72293 8227 ft 311 kts
2026-05-05 22:42 42.43671 -70.71805 8871 ft 302 kts 354°
2026-05-05 22:42 42.45729 -70.72016 9509 ft 293 kts 339°
2026-05-05 22:42 42.47634 -70.72861 10109 ft 285 kts 327°
2026-05-05 22:43 42.49463 -70.74064 10333 ft 302 kts 327°
2026-05-05 22:43 42.51396 -70.75445 10454 ft 317 kts 321°
2026-05-05 22:43 42.53192 -70.77266 10578 ft 329 kts 312°
2026-05-05 22:43 42.54754 -70.79539 10694 ft 340 kts 302°
2026-05-05 22:44 42.56127 -70.82273 10867 ft 352 kts 299°
2026-05-05 22:44 42.57483 -70.85059 11292 ft 357 kts 299°
2026-05-05 22:44 42.58846 -70.87851 11786 ft 361 kts 299°
2026-05-05 22:44 42.60239 -70.90700 12348 ft 363 kts 299°
2026-05-05 22:45 42.61639 -70.93568 12902 ft 366 kts 299°
2026-05-05 22:45 42.63047 -70.96462 13448 ft 369 kts 299°
2026-05-05 22:45 42.64465 -70.99379 13938 ft 372 kts 299°
2026-05-05 22:45 42.65894 -71.02324 14374 ft 375 kts 299°
2026-05-05 22:46 42.67339 -71.05295 14854 ft 379 kts 300°
2026-05-05 22:46 42.68797 -71.08289 15316 ft 382 kts 300°
2026-05-05 22:46 42.70271 -71.11324 15788 ft 386 kts 300°
2026-05-05 22:46 42.71752 -71.14379 16277 ft 389 kts 299°
2026-05-05 22:47 42.73242 -71.17463 16744 ft 392 kts 299°
2026-05-05 22:47 42.74754 -71.20603 17192 ft 396 kts 299°
2026-05-05 22:47 42.76257 -71.23727 17627 ft 399 kts 299°
2026-05-05 22:47 42.77667 -71.26982 18010 ft 399 kts 292°
2026-05-05 22:48 42.78646 -71.30508 18374 ft 398 kts 282°
2026-05-05 22:48 42.79333 -71.34166 18761 ft 400 kts 282°
2026-05-05 22:48 42.80025 -71.37841 19128 ft 402 kts 282°
2026-05-05 22:48 42.80724 -71.41541 19524 ft 404 kts 282°
2026-05-05 22:49 42.81426 -71.45245 19896 ft 405 kts 282°
2026-05-05 22:49 42.82131 -71.48973 20301 ft 407 kts 282°
2026-05-05 22:49 42.82837 -71.52718 20685 ft 409 kts 282°
2026-05-05 22:49 42.83543 -71.56479 21064 ft 411 kts 282°
2026-05-05 22:50 42.84250 -71.60257 21461 ft 412 kts 282°
2026-05-05 22:50 42.84956 -71.64036 21834 ft 413 kts 282°
2026-05-05 22:50 42.85663 -71.67840 22196 ft 415 kts 282°
2026-05-05 22:50 42.86371 -71.71669 22559 ft 417 kts 282°
2026-05-05 22:51 42.87077 -71.75500 22923 ft 419 kts 282°
2026-05-05 22:51 42.87789 -71.79356 23267 ft 420 kts 282°
2026-05-05 22:51 42.88506 -71.83231 23554 ft 422 kts 282°
2026-05-05 22:51 42.89224 -71.87124 23797 ft 424 kts 282°
2026-05-05 22:52 42.89941 -71.91031 24088 ft 425 kts 282°
2026-05-05 22:52 42.90660 -71.94948 24394 ft 426 kts 282°
2026-05-05 22:52 42.91379 -71.98872 24663 ft 428 kts 282°
2026-05-05 22:52 42.92101 -72.02810 24922 ft 429 kts 282°
2026-05-05 22:53 42.92825 -72.06777 25185 ft 431 kts 282°
2026-05-05 22:53 42.93548 -72.10747 25454 ft 433 kts 282°
2026-05-05 22:53 42.94274 -72.14747 25718 ft 435 kts 282°
2026-05-05 22:53 42.95000 -72.18760 25997 ft 436 kts 282°
2026-05-05 22:54 42.95721 -72.22770 26377 ft 434 kts 281°
2026-05-05 22:54 42.96438 -72.26768 26771 ft 433 kts 282°
2026-05-05 22:54 42.97155 -72.30762 27126 ft 433 kts 282°
2026-05-05 22:54 42.97874 -72.34755 27484 ft 432 kts 282°
2026-05-05 22:55 42.98590 -72.38731 27820 ft 432 kts 282°
2026-05-05 22:55 42.99306 -72.42724 28177 ft 431 kts 282°
2026-05-05 22:55 43.00015 -72.46696 28540 ft 431 kts 282°
2026-05-05 22:55 43.00722 -72.50672 28892 ft 430 kts 282°
2026-05-05 22:56 43.01423 -72.54642 29236 ft 429 kts 282°
2026-05-05 22:56 43.02121 -72.58599 29554 ft 429 kts 282°
2026-05-05 22:56 43.02823 -72.62560 29937 ft 427 kts 282°
2026-05-05 22:56 43.03522 -72.66496 30340 ft 424 kts 282°
2026-05-05 22:57 43.04203 -72.70344 30695 ft 421 kts 282°
2026-05-05 22:57 43.04885 -72.74226 31033 ft 419 kts 282°
2026-05-05 22:57 43.05340 -72.76828 31265 ft 417 kts 282°
2026-05-05 22:57 43.06014 -72.80677 31589 ft 415 kts 282°
2026-05-05 22:58 43.06900 -72.85754 31769 ft 414 kts 282°
2026-05-05 22:58 43.08013 -72.92161 31778 ft 414 kts 282°
2026-05-05 22:59 43.09337 -72.99808 31777 ft 410 kts 282°
2026-05-05 22:59 43.10639 -73.07381 31779 ft 409 kts 282°
2026-05-05 23:00 43.12592 -73.18742 31805 ft 408 kts 282°
2026-05-05 23:00 43.13875 -73.26257 31811 ft 409 kts 282°
2026-05-05 23:01 43.15157 -73.33834 31834 ft 408 kts 282°